Terminal Aerodrome Forecast
Issued by NWS Raleigh/Durham, NC

Home | Current Version | Previous Version | Text Only | Print | Product List | Glossary On
Versions: 1 2 3 4 5 6 7 8 9 10 11 12 13 14 15 16 17 18 19 20 21 22 23 24 25 26 27 28 29 30 31 32 33 34 35 36 37 38 39 40 41 42 43 44 45 46 47 48 49 50
000
FTUS42 KRAH 050545
TAFRDU
TAF
KRDU 050545Z 0506/0606 22007KT P6SM SCT070 BKN250 WS012/23040KT
      TEMPO 0510/0512 VRB10G20KT 6SM -SHRA BKN015 OVC035
     FM051200 03012G20KT 4SM -RA OVC006
      TEMPO 0513/0517 2SM -RA BR OVC004
     FM052000 03010G18KT 1SM -RA BR BKN014 OVC030=

USA.gov is the U.S. government's official web portal to all federal, state and local government web resources and services.